Weather History for KCVN - November, 2012

Change the Weather History Date:

Friday, November 23, 2012

  Actual Average Record
Temperature  
Mean Temperature 42 °F -  
Max Temperature 53 °F 59 °F 75 °F (1974)
Min Temperature 30 °F 31 °F 5 °F (1957)
Degree Days  
Heating Degree Days 24    
Moisture  
Dew Point 18 °F    
Average Humidity 41    
Maximum Humidity 61    
Minimum Humidity 24    
Precipitation  
Precipitation 0.00 in - - ()
Sea Level Pressure  
Sea Level Pressure 30.50 in    
Wind  
Wind Speed 12 mph (ENE)    
Max Wind Speed 23 mph    
Max Gust Speed 16 mph    
Visibility 10 miles    
Events      
Averages and records for this station are not official NWS values.
T = Trace of Precipitation, MM = Missing Value Source: NWS Daily Summary

Daily Weather History Graph

Daily Weather History Graph

Search for Another Location

Airport or City:

Trip Planner

Search our weather history database for the weather conditions in past years. The results will help you decide how hot, cold, wet, or windy it might be!

Date:

Astronomy

Nov. 23, 2012 Rise Set
Actual Time 6:33 AM MST 4:43 PM MST
Civil Twilight 6:06 AM MST 5:10 PM MST
Nautical Twilight 5:35 AM MST 5:41 PM MST
Astronomical Twilight 5:05 AM MST 6:11 PM MST
Moon 1:50 PM MST (11/23) 2:04 AM MST (11/23)
Length of Visible Light 11h 04m
Length of Day
10h 10m
Waxing Gibbous, 80% of the Moon is Illuminated
Nov 23
Waxing Gibbous
Nov 28
Full
Dec 6
Last Quarter
Dec 13
New
Dec 19
First Quarter

Hourly Weather History & Observations

Time (MST) Temp. Windchill Dew Point Humidity Pressure Visibility Wind Dir Wind Speed Gust Speed Precip Events Conditions
12:15 AM 42.8 °F 34.5 °F 26.6 °F 53% 30.39 in 10.0 mi NNE 18.4 mph - N/A   Clear
12:35 AM 41.0 °F 31.6 °F 26.6 °F 57% 30.40 in 10.0 mi NNE 20.7 mph - N/A   Clear
12:55 AM 41.0 °F 31.6 °F 26.6 °F 57% 30.41 in 10.0 mi NNE 20.7 mph - N/A   Clear
1:15 AM 41.0 °F 31.4 °F 26.6 °F 57% 30.41 in 10.0 mi NNE 21.9 mph - N/A   Clear
1:35 AM 39.2 °F 28.7 °F 26.6 °F 61% 30.42 in 10.0 mi NNE 23.0 mph - N/A   Clear
1:55 AM 39.2 °F 29.3 °F 24.8 °F 56% 30.43 in 10.0 mi NNE 20.7 mph - N/A   Clear
2:15 AM 39.2 °F 29.6 °F 24.8 °F 56% 30.44 in 10.0 mi NNE 19.6 mph - N/A   Clear
2:35 AM 37.4 °F 27.5 °F 24.8 °F 60% 30.45 in 10.0 mi NNE 18.4 mph - N/A   Clear
2:55 AM 37.4 °F 28.2 °F 23.0 °F 56% 30.46 in 10.0 mi NNE 16.1 mph - N/A   Clear
3:15 AM 37.4 °F 27.5 °F 21.2 °F 52% 30.46 in 10.0 mi NNE 18.4 mph - N/A   Clear
3:35 AM 35.6 °F 25.5 °F 21.2 °F 56% 30.46 in 10.0 mi NNE 17.3 mph - N/A   Clear
3:55 AM 35.6 °F 26.2 °F 21.2 °F 56% 30.47 in 10.0 mi NNE 15.0 mph - N/A   Clear
4:15 AM 35.6 °F 27.1 °F 21.2 °F 56% 30.48 in 10.0 mi North 12.7 mph - N/A   Clear
4:35 AM 33.8 °F 24.8 °F 21.2 °F 60% 30.48 in 10.0 mi North 12.7 mph - N/A   Clear
4:55 AM 33.8 °F 25.3 °F 19.4 °F 56% 30.49 in 10.0 mi North 11.5 mph - N/A   Clear
5:15 AM 32.0 °F 22.5 °F 19.4 °F 60% 30.50 in 10.0 mi North 12.7 mph - N/A   Clear
5:35 AM 32.0 °F 22.1 °F 19.4 °F 60% 30.50 in 10.0 mi North 13.8 mph - N/A   Clear
5:55 AM 32.0 °F 23.6 °F 19.4 °F 60% 30.51 in 10.0 mi North 10.4 mph - N/A   Clear
6:15 AM 30.2 °F 21.9 °F 17.6 °F 60% 30.53 in 10.0 mi North 9.2 mph - N/A   Clear
6:35 AM 30.2 °F 22.6 °F 17.6 °F 60% 30.54 in 10.0 mi North 8.1 mph - N/A   Clear
6:55 AM 30.2 °F 23.4 °F 17.6 °F 60% 30.54 in 10.0 mi North 6.9 mph - N/A   Clear
7:15 AM 32.0 °F 26.4 °F 17.6 °F 55% 30.55 in 10.0 mi North 5.8 mph - N/A   Clear
7:35 AM 35.6 °F 28.6 °F 19.4 °F 52% 30.56 in 10.0 mi North 9.2 mph - N/A   Clear
7:55 AM 37.4 °F 30.3 °F 21.2 °F 52% 30.58 in 10.0 mi NNE 10.4 mph - N/A   Clear
8:15 AM 39.2 °F 32.5 °F 21.2 °F 49% 30.58 in 10.0 mi NE 10.4 mph - N/A   Clear
8:35 AM 42.8 °F 37.5 °F 21.2 °F 42% 30.59 in 10.0 mi NE 9.2 mph - N/A   Clear
8:55 AM 44.6 °F 39.7 °F 21.2 °F 39% 30.60 in 10.0 mi ENE 9.2 mph - N/A   Clear
9:15 AM 44.6 °F 39.2 °F 21.2 °F 39% 30.60 in 10.0 mi ENE 10.4 mph - N/A   Clear
9:35 AM 46.4 °F 40.4 °F 19.4 °F 34% 30.60 in 10.0 mi East 13.8 mph - N/A   Clear
9:55 AM 46.4 °F 41.9 °F 19.4 °F 34% 30.60 in 10.0 mi ENE 9.2 mph - N/A   Clear
10:15 AM 48.2 °F - 19.4 °F 32% 30.60 in 10.0 mi ENE 10.4 mph - N/A   Clear
10:35 AM 48.2 °F - 17.6 °F 30% 30.60 in 10.0 mi ENE 11.5 mph 16.1 mph N/A   Clear
10:55 AM 48.2 °F - 19.4 °F 32% 30.59 in 10.0 mi ENE 9.2 mph 16.1 mph N/A   Clear
11:15 AM 50.0 °F - 17.6 °F 28% 30.58 in 10.0 mi East 8.1 mph - N/A   Clear
11:35 AM 50.0 °F - 17.6 °F 28% 30.57 in 10.0 mi ENE 10.4 mph - N/A   Clear
11:55 AM 51.8 °F - 17.6 °F 26% 30.56 in 10.0 mi ENE 4.6 mph - N/A   Clear
12:15 PM 51.8 °F - 17.6 °F 26% 30.55 in 10.0 mi East 6.9 mph - N/A   Clear
12:35 PM 51.8 °F - 17.6 °F 26% 30.54 in 10.0 mi ENE 6.9 mph - N/A   Clear
12:55 PM 51.8 °F - 17.6 °F 26% 30.54 in 10.0 mi East 4.6 mph - N/A   Clear
1:15 PM 51.8 °F - 17.6 °F 26% 30.52 in 10.0 mi SE 5.8 mph - N/A   Clear
1:35 PM 51.8 °F - 17.6 °F 26% 30.52 in 10.0 mi SE 6.9 mph - N/A   Clear
1:55 PM 51.8 °F - 17.6 °F 26% 30.51 in 10.0 mi South 4.6 mph - N/A   Clear
2:15 PM 51.8 °F - 17.6 °F 26% 30.51 in 10.0 mi ESE 4.6 mph - N/A   Clear
2:35 PM 53.6 °F - 17.6 °F 24% 30.50 in 10.0 mi SSE 6.9 mph - N/A   Clear
2:55 PM 51.8 °F - 17.6 °F 26% 30.49 in 10.0 mi ESE 3.5 mph - N/A   Clear
3:15 PM 51.8 °F - 17.6 °F 26% 30.49 in 10.0 mi SE 5.8 mph - N/A   Clear
3:35 PM 51.8 °F - 15.8 °F 24% 30.49 in 10.0 mi South 4.6 mph - N/A   Clear
3:55 PM 51.8 °F - 15.8 °F 24% 30.49 in 10.0 mi SSE 6.9 mph - N/A   Clear
4:15 PM 50.0 °F - 15.8 °F 26% 30.49 in 10.0 mi SSE 6.9 mph - N/A   Clear
4:35 PM 48.2 °F - 15.8 °F 27% 30.49 in 10.0 mi SSE 4.6 mph - N/A   Clear
4:55 PM 46.4 °F 45.2 °F 15.8 °F 29% 30.49 in 10.0 mi SSE 3.5 mph - N/A   Clear
5:15 PM 44.6 °F 43.1 °F 15.8 °F 31% 30.48 in 10.0 mi SE 3.5 mph - N/A   Clear
5:35 PM 44.6 °F 42.2 °F 15.8 °F 31% 30.48 in 10.0 mi SSE 4.6 mph - N/A   Clear
5:55 PM 42.8 °F 40.1 °F 15.8 °F 34% 30.48 in 10.0 mi SSE 4.6 mph - N/A   Clear
6:15 PM 39.2 °F 37.0 °F 17.6 °F 42% 30.48 in 10.0 mi SSE 3.5 mph - N/A   Clear
6:35 PM 41.0 °F - 15.8 °F 36% 30.48 in 10.0 mi Calm Calm - N/A   Clear
6:55 PM 41.0 °F - 12.2 °F 31% 30.48 in 10.0 mi Calm Calm - N/A   Clear
7:15 PM 39.2 °F - 12.2 °F 33% 30.48 in 10.0 mi Calm Calm - N/A   Clear
7:35 PM 39.2 °F - 12.2 °F 33% 30.47 in 10.0 mi Calm Calm - N/A   Clear
7:55 PM 37.4 °F 34.9 °F 12.2 °F 36% 30.47 in 10.0 mi South 3.5 mph - N/A   Clear
8:15 PM 37.4 °F 34.9 °F 15.8 °F 41% 30.47 in 10.0 mi South 3.5 mph - N/A   Clear
8:35 PM 37.4 °F 33.8 °F 15.8 °F 41% 30.47 in 10.0 mi South 4.6 mph - N/A   Clear
8:55 PM 35.6 °F 31.7 °F 15.8 °F 44% 30.46 in 10.0 mi South 4.6 mph - N/A   Clear
9:15 PM 35.6 °F - 14.0 °F 41% 30.46 in 10.0 mi Calm Calm - N/A   Clear
9:35 PM 35.6 °F 32.8 °F 12.2 °F 38% 30.46 in 10.0 mi SSW 3.5 mph - N/A   Clear
9:55 PM 35.6 °F 31.7 °F 14.0 °F 41% 30.46 in 10.0 mi SSW 4.6 mph - N/A   Clear
10:15 PM 33.8 °F 27.7 °F 12.2 °F 41% 30.45 in 10.0 mi SW 6.9 mph - N/A   Clear
10:35 PM 32.0 °F 24.2 °F 10.4 °F 41% 30.45 in 10.0 mi SW 9.2 mph - N/A   Clear
10:55 PM 32.0 °F 24.2 °F 10.4 °F 41% 30.44 in 10.0 mi SW 9.2 mph - N/A   Clear
11:15 PM 30.2 °F 21.9 °F 10.4 °F 44% 30.43 in 10.0 mi SW 9.2 mph - N/A   Clear
11:35 PM 30.2 °F 21.9 °F 12.2 °F 47% 30.42 in 10.0 mi SW 9.2 mph - N/A   Clear
11:55 PM 30.2 °F 21.9 °F 10.4 °F 44% 30.41 in 10.0 mi WSW 9.2 mph - N/A   Clear